Lapse_Rate
3.7 3.7 3.7 3.8 4.0 3.9 4.0 3.9 4.2 4.5 4.5 4.7 4.8 4.9 5.0 5.0 5.1 4.9 4.8 5.0 5.0 5.3 5.2 5.1 5.7 6.0 7.9 8.4 8.0 8.1 8.2 8.0 7.6 7.3 6.4 5.7 4.9 4.9 5.9 6.4 6.6 6.4 6.0
4.5 4.5 4.1 4.1 4.2 4.2 4.1 4.4 4.5 4.6 4.3 4.8 5.0 5.1 5.4 5.7 5.7 5.6 5.5 6.0 5.9 6.7 5.8 7.5 8.4 8.9 8.4 8.4 8.0 8.2 7.8 7.3 7.0 6.4 6.5 5.9 4.6 5.4 5.5 5.3 6.3 7.2 7.1
4.4 4.2 4.3 4.6 4.7 4.4 4.5 4.5 4.5 4.3 4.5 4.8 5.5 5.7 6.3 6.7 6.8 6.2 6.0 5.8 6.0 6.9 7.9 8.6 8.6 8.6 8.4 8.6 8.5 7.8 7.5 7.8 7.3 6.9 7.0 7.3 6.5 5.8 6.0 5.9 5.8 5.2 6.0
4.3 4.5 4.8 4.4 4.9 4.6 4.5 4.4 4.5 4.8 4.8 5.2 5.7 6.4 6.8 7.6 6.8 6.1 6.1 5.8 6.2 7.7 8.2 8.3 8.5 8.5 8.1 7.4 7.4 8.0 8.0 7.9 8.0 7.8 7.5 7.4 7.7 6.8 7.1 6.8 6.0 4.2 4.2
4.9 4.7 4.9 4.9 4.7 4.5 4.4 4.5 4.7 5.0 5.7 5.6 6.3 6.8 6.3 6.6 7.7 7.5 8.1 8.6 8.1 8.0 7.8 8.0 8.1 8.4 8.7 8.4 7.2 6.5 6.3 5.8 5.6 6.0 5.8 6.7 6.8 7.1 7.0 5.8 5.8 5.7 4.7
4.5 4.9 5.1 5.3 5.0 4.7 4.6 4.7 4.7 4.9 5.1 5.7 5.7 5.8 5.6 7.3 8.7 9.5 9.1 8.3 8.0 7.9 7.2 7.5 7.3 7.7 7.9 8.2 9.2 8.9 8.5 7.2 7.2 6.2 6.0 6.0 6.5 6.1 6.1 6.3 6.3 5.9 5.4
4.7 5.1 5.5 5.2 5.1 4.8 4.7 4.7 5.0 5.0 5.1 5.0 5.0 5.3 5.6 7.9 9.5 9.4 9.3 8.4 7.5 7.0 7.2 7.1 7.6 8.3 7.4 7.7 7.9 8.8 8.6 8.3 9.0 7.8 7.4 6.2 6.1 6.2 6.5 6.8 6.8 6.3 6.5
5.0 5.2 5.2 5.1 4.8 4.6 4.6 4.9 4.8 4.8 4.9 4.8 5.0 5.8 8.0 8.3 9.3 9.3 9.2 7.9 7.7 7.4 7.4 7.0 6.7 6.5 6.6 7.0 7.3 7.4 7.4 7.2 7.4 7.3 6.6 6.6 7.0 6.2 6.4 6.5 6.7 6.8 7.0
5.3 5.0 5.1 4.9 4.7 4.7 4.8 5.0 4.7 4.5 4.3 4.8 5.6 7.3 7.7 7.6 8.5 9.2 8.8 7.4 7.1 7.0 7.3 6.9 7.1 7.3 7.8 9.1 8.2 7.5 6.7 6.7 7.5 8.0 8.9 8.8 8.3 7.8 6.5 6.4 6.0 6.6 6.6
5.2 5.4 5.1 5.0 4.9 5.1 5.1 4.7 4.8 4.4 5.0 6.0 6.7 7.4 7.7 7.3 7.7 8.5 8.5 7.4 6.2 7.3 6.7 6.7 8.2 8.8 9.3 9.1 8.1 7.6 7.4 6.2 6.6 6.5 6.8 6.9 6.6 7.5 7.8 6.6 6.7 7.1 6.8
5.4 5.4 5.3 5.1 5.1 5.3 5.2 4.6 4.1 4.3 5.0 5.2 6.5 6.7 7.0 7.3 7.7 7.9 8.9 7.9 7.4 7.2 6.7 6.8 6.9 8.2 9.2 9.0 9.0 7.7 7.5 6.5 6.8 6.8 5.9 6.4 6.1 5.5 5.9 6.6 6.5 6.6 6.9
5.3 5.3 5.0 4.8 5.7 7.3 4.7 4.1 4.1 4.4 5.0 5.7 7.2 7.2 7.1 7.3 7.5 7.5 9.2 9.2 8.9 6.9 6.4 6.7 6.7 8.6 9.0 9.1 7.9 7.9 7.6 7.6 5.7 5.3 5.2 5.0 4.8 4.5 4.6 4.7 5.6 6.3 6.6
5.1 4.7 4.6 4.9 5.6 5.4 4.6 4.3 5.1 5.2 5.8 7.1 7.2 6.9 7.0 6.9 6.7 7.5 8.3 8.7 7.8 7.5 7.7 8.1 8.9 8.6 8.8 6.6 7.0 7.8 7.1 5.5 5.0 4.8 5.0 4.4 4.0 4.1 4.1 4.5 5.0 5.6 5.8
4.9 4.5 4.6 5.1 6.4 5.0 4.9 5.7 5.6 6.1 6.8 6.7 7.0 7.0 7.1 6.8 6.7 6.8 6.2 6.8 6.7 6.4 7.6 7.4 7.8 8.2 7.5 7.2 6.4 6.4 7.1 6.2 5.8 6.6 5.9 4.2 4.5 6.2 5.7 4.8 5.2 5.3 6.1
4.7 4.7 4.9 5.6 5.4 4.8 5.3 5.6 6.7 7.1 7.2 7.2 7.0 7.1 6.9 7.0 7.1 8.5 8.2 7.7 7.5 7.7 8.0 6.3 5.6 8.1 7.3 6.9 6.0 5.7 6.5 6.2 5.7 6.3 6.2 6.5 6.8 6.4 5.6 5.5 6.3 6.4 6.2
5.1 4.9 4.9 5.8 4.8 5.1 5.3 6.2 7.6 8.4 8.9 8.5 8.5 8.5 7.9 8.1 8.9 8.7 8.7 8.9 8.7 9.1 7.1 5.9 6.5 7.7 7.4 7.3 6.3 5.9 5.5 5.4 5.4 6.2 6.5 6.4 6.7 6.6 6.6 6.4 6.5 6.5 7.1
5.0 5.1 5.4 5.3 5.3 5.3 6.0 6.6 6.8 6.8 8.0 8.4 8.2 8.6 8.7 9.0 9.1 9.0 9.0 9.0 8.2 8.1 6.4 6.1 6.2 7.4 7.4 7.4 6.9 5.9 6.7 5.8 5.5 5.6 5.8 6.5 6.6 6.5 6.7 6.4 6.2 6.5 6.6
5.0 7.1 4.7 5.1 5.3 5.8 6.1 6.6 6.8 6.7 6.6 6.6 7.4 8.2 8.4 9.0 8.9 8.8 8.9 7.7 6.5 6.8 6.5 6.6 6.5 7.0 7.5 7.5 7.2 5.9 6.3 6.2 5.1 5.3 5.6 6.3 6.4 6.7 6.4 5.5 5.4 6.5 6.5
5.4 5.1 5.8 6.1 7.0 7.2 6.3 6.7 6.7 6.5 6.6 6.7 7.1 7.5 7.7 7.8 7.6 8.7 8.5 6.7 6.7 6.8 6.8 6.7 7.0 6.9 7.6 7.5 7.3 6.8 6.2 5.6 5.2 5.4 5.8 6.3 6.6 6.6 6.8 6.8 6.8 6.0 6.8
5.2 7.3 7.9 6.7 6.0 6.1 6.4 6.7 6.7 6.5 6.8 6.9 7.3 7.2 6.7 7.0 6.9 6.9 7.1 6.9 6.8 6.8 6.8 6.8 6.7 7.1 7.3 7.4 7.3 7.0 6.0 5.2 4.4 4.4 4.8 5.6 6.5 6.6 6.8 6.8 6.7 7.2 6.2
4.5 5.1 7.5 5.4 5.9 6.2 6.6 6.8 6.9 6.7 6.8 7.1 7.1 7.2 8.5 7.2 6.6 6.8 6.9 6.9 6.8 6.7 6.6 6.5 6.7 7.0 6.9 7.2 7.1 6.4 5.5 4.5 4.2 4.0 4.6 4.8 5.7 5.7 6.6 6.1 5.8 6.5 6.7
4.6 5.3 6.0 7.1 6.8 6.4 6.8 6.6 6.9 6.8 7.4 7.2 6.7 6.9 8.0 6.9 6.7 6.8 6.9 6.8 6.8 6.6 6.3 6.3 6.4 6.6 6.9 6.9 6.8 5.6 5.2 4.3 3.9 3.6 4.4 4.5 5.6 5.6 5.3 5.1 4.5 5.5 6.7
4.9 5.6 7.6 7.8 7.0 7.3 6.3 6.6 6.7 6.9 6.9 6.9 6.7 6.8 6.9 6.7 6.7 6.8 6.9 6.8 6.5 6.3 6.1 6.1 6.1 6.2 6.1 6.3 6.2 4.6 3.9 3.5 3.6 3.6 3.3 3.5 5.1 5.5 5.0 5.0 4.7 4.9 4.8
5.1 5.5 8.2 7.5 7.5 7.0 6.9 7.0 6.8 7.2 7.5 7.0 6.9 6.9 6.8 6.7 6.8 6.8 6.7 6.6 6.1 6.0 5.7 5.5 5.4 5.2 4.9 4.9 4.7 3.6 3.2 3.4 3.2 3.0 3.0 3.8 4.9 5.8 5.3 4.9 4.9 5.2 5.8
4.9 5.2 6.4 7.4 6.8 6.6 6.8 6.8 6.6 6.8 7.0 6.9 6.9 6.8 6.7 6.9 6.9 6.9 6.6 6.3 5.9 5.6 5.2 4.7 4.4 4.1 4.0 3.8 3.6 3.0 2.8 2.8 3.3 3.2 3.5 4.6 5.3 5.9 6.0 5.2 5.4 5.1 5.8
4.9 5.1 7.2 7.2 6.3 6.6 6.6 6.8 6.9 7.1 7.1 7.2 6.8 6.9 6.9 6.9 6.7 6.5 6.3 6.0 5.7 5.3 4.5 4.1 3.6 2.8 2.9 3.1 3.0 2.6 2.4 2.9 2.8 4.0 3.9 5.0 5.3 5.5 6.0 5.9 5.6 4.9 5.5
Wind_Speed
3 3 4 5 5 5 4 5 4 4 4 4 5 6 6 7 7 6 7 7 7 7 6 7 8 8 8 8 7 8 9 9 12 15 5 5 6 8 11 16 16 14 16
3 3 4 3 3 4 4 4 4 5 4 6 6 6 7 7 7 7 7 7 7 10 8 8 10 8 12 10 7 10 10 10 10 18 11 8 9 10 12 10 9 17 13
3 3 3 3 4 4 3 4 5 5 6 6 6 7 7 8 9 6 5 5 6 10 13 14 13 13 12 10 11 10 9 10 10 11 12 10 10 8 9 9 9 10 14
3 2 2 4 2 3 4 5 5 6 6 7 6 7 8 10 7 6 6 7 8 10 12 12 12 13 14 14 13 14 14 13 12 12 11 12 10 11 8 9 8 6 8
5 5 3 3 4 4 5 5 6 6 6 6 7 7 5 6 6 10 12 13 12 14 13 13 15 18 26 24 13 13 13 13 13 12 12 12 11 11 11 10 9 7 8
3 4 4 5 5 5 5 6 6 6 6 6 6 5 6 7 21 23 20 13 13 13 12 12 11 20 21 26 27 26 22 11 11 10 12 13 15 12 12 10 9 7 7
5 5 6 5 4 5 6 6 6 7 6 7 6 6 7 10 23 24 25 13 12 10 12 12 10 9 16 12 18 26 22 26 25 17 15 12 15 15 14 13 13 11 12
5 6 5 4 5 6 6 7 7 5 7 6 6 7 11 10 23 26 26 13 11 12 13 11 11 12 13 15 14 14 14 12 14 13 15 16 15 16 16 14 13 12 10
6 5 4 4 6 6 7 8 7 5 5 5 6 10 10 12 22 24 22 12 11 11 10 8 11 13 19 25 16 13 15 14 18 27 26 28 29 32 21 10 10 10 8
6 5 4 5 6 7 7 7 3 3 5 6 8 9 15 12 21 24 21 9 10 7 9 10 16 16 24 25 15 12 15 13 14 12 10 13 18 20 28 17 11 11 7
4 4 5 6 7 7 6 3 4 5 6 6 9 10 11 12 14 24 23 10 7 8 6 7 7 21 24 25 26 13 15 17 15 8 5 4 1 1 3 8 11 8 8
4 4 5 6 6 6 3 4 5 6 7 8 11 10 8 11 17 19 23 22 18 7 8 8 10 23 24 26 22 23 25 5 3 3 3 4 3 3 3 4 8 10 8
3 5 5 6 6 3 4 6 5 5 6 10 9 9 8 8 8 19 22 22 17 10 6 14 23 19 22 18 20 10 4 3 2 3 4 4 4 5 4 2 4 9 11
4 5 5 5 6 4 4 5 6 6 7 8 9 9 8 7 8 8 9 8 12 9 14 7 10 13 16 15 12 9 3 2 3 6 5 4 4 3 4 5 5 6 8
3 5 5 4 4 4 4 5 6 7 9 9 8 9 8 9 7 19 16 9 8 9 12 3 3 6 6 7 7 6 7 4 4 5 6 6 6 5 6 5 6 6 7
4 4 4 3 3 4 5 7 13 15 19 21 21 16 10 18 23 23 21 20 18 20 4 3 5 4 5 6 8 8 7 8 6 8 7 6 6 3 3 4 6 7 8
4 5 3 4 4 4 7 7 8 10 16 17 19 21 21 21 22 21 20 20 17 13 4 5 5 5 4 5 6 6 7 8 8 8 9 7 5 6 8 8 9 8 9
4 9 3 4 4 4 5 7 7 8 8 9 14 17 18 21 22 20 20 14 7 7 5 6 6 5 5 5 5 6 6 7 7 8 9 6 4 3 4 5 7 7 10
4 3 3 4 3 8 6 7 6 9 6 9 9 12 15 20 17 18 18 6 7 7 6 5 6 6 6 5 5 5 6 6 8 8 7 5 5 5 7 5 5 14 11
4 11 9 3 4 6 6 6 6 8 7 8 8 9 9 9 9 9 8 8 7 7 7 6 6 6 6 6 5 5 5 6 6 7 8 7 5 3 3 5 4 4 10
4 4 8 4 4 6 6 7 6 7 7 8 8 10 22 9 9 9 9 9 8 7 8 7 6 6 6 5 5 5 4 5 6 7 7 7 6 4 2 4 4 5 6
4 4 3 5 5 7 5 5 7 7 9 8 8 8 20 8 8 9 9 9 9 8 7 7 6 6 5 5 5 5 4 4 5 6 6 7 6 4 4 4 4 5 6
4 4 5 6 6 9 6 6 6 7 8 8 9 8 8 8 9 10 11 10 10 9 8 7 6 6 5 5 5 5 4 4 4 4 6 7 5 4 4 4 4 4 4
4 5 5 6 6 6 6 7 7 11 10 8 8 9 8 9 10 11 11 10 10 9 8 6 6 7 6 6 5 5 5 4 4 3 6 6 5 5 3 4 4 5 6
4 4 5 5 6 6 8 8 8 8 8 8 8 8 9 10 10 11 11 10 10 10 10 8 6 6 7 8 8 8 8 9 6 4 4 5 6 6 3 3 3 4 5
4 4 5 5 5 6 7 8 8 8 9 9 8 9 10 10 11 11 10 12 12 11 12 8 8 9 8 7 10 12 13 12 8 9 3 3 4 4 3 4 4 3 4
Wind_Direction
122 106 53 12 2 2 2 360 360 338 320 311 300 294 290 285 277 274 272 271 261 263 258 258 255 248 257 270 256 256 262 256 265 277 250 242 247 253 264 265 266 262 261
171 96 61 42 20 3 358 342 337 328 323 307 301 295 289 283 279 273 269 284 280 281 261 260 280 281 275 268 252 252 247 244 249 266 265 258 244 250 259 259 260 265 263
94 79 41 356 341 346 324 314 318 317 306 301 296 290 287 284 277 266 269 279 277 286 288 279 272 271 270 268 263 256 253 252 243 249 260 255 253 242 250 253 251 253 254
92 95 359 353 338 299 295 305 304 298 299 294 290 285 285 293 297 281 264 266 266 273 278 278 276 272 270 266 261 258 257 254 254 255 257 259 251 249 241 250 254 233 254
26 18 0 303 294 307 317 314 307 304 302 295 293 293 328 318 302 299 292 290 287 281 276 272 272 269 266 267 263 253 252 247 247 245 243 245 242 246 236 244 244 251 247
10 330 313 327 328 329 321 310 308 305 296 288 293 298 297 304 307 302 301 292 284 289 280 274 280 283 282 282 283 290 290 279 277 250 243 238 240 231 241 242 239 234 256
338 316 304 330 333 312 304 312 302 291 280 284 285 286 281 289 301 302 301 294 298 286 283 280 272 283 290 287 286 285 288 287 283 279 269 239 238 230 230 235 233 236 239
307 297 318 322 311 313 310 295 286 279 278 281 272 275 301 296 302 307 304 306 298 294 290 291 291 278 274 275 278 270 268 268 280 272 259 257 248 230 225 224 225 231 243
294 302 296 308 313 304 296 290 280 284 296 283 271 296 300 297 302 306 308 306 304 294 284 292 279 274 278 289 285 288 284 283 284 275 278 282 269 235 212 207 210 218 228
291 276 286 305 301 291 288 282 298 308 285 290 298 302 301 300 299 304 309 302 292 295 290 278 286 295 296 295 293 285 283 281 276 269 277 283 315 218 214 203 201 211 201
261 283 309 303 291 283 281 340 316 302 299 296 301 302 297 293 299 303 306 305 295 294 291 295 292 300 299 300 300 293 281 274 266 266 278 291 331 188 240 207 201 206 203
265 303 309 305 301 302 7 313 305 305 308 300 309 307 295 296 300 303 305 315 314 326 300 299 294 301 316 314 304 284 280 310 307 265 270 278 282 273 254 190 180 195 211
322 312 313 309 301 344 339 319 315 306 299 310 312 299 298 299 293 299 307 310 310 298 301 298 315 321 323 316 321 314 58 40 14 333 298 271 238 236 225 199 193 194 198
307 316 314 312 321 345 328 316 309 301 303 303 310 307 301 304 297 300 290 301 294 299 304 309 313 327 328 324 339 349 343 352 344 312 290 269 263 231 214 196 190 196 212
320 318 314 307 318 317 297 305 301 309 305 317 311 312 310 309 311 319 329 340 332 324 327 322 298 325 324 330 331 332 332 320 331 312 291 283 274 241 223 200 204 193 208
328 322 308 318 337 317 314 315 314 323 326 324 322 321 321 321 328 334 335 335 342 330 341 304 309 312 316 323 329 329 324 323 333 316 298 274 281 232 236 215 212 211 221
331 311 327 356 323 327 323 315 314 321 325 329 326 328 327 330 328 335 342 338 336 340 312 300 285 290 300 308 310 314 317 319 320 307 306 289 262 243 243 238 222 214 209
333 341 356 316 304 312 307 310 311 312 320 327 328 329 325 332 337 340 340 340 322 320 296 295 292 290 288 290 300 306 314 320 316 306 302 293 291 281 303 282 255 225 205
342 314 311 311 322 327 316 306 321 326 308 318 322 322 330 324 333 335 334 318 305 299 296 296 299 294 287 281 284 294 306 310 308 310 313 309 298 295 293 308 337 194 192
345 336 348 0 322 321 314 317 334 324 324 318 323 326 321 337 337 328 320 308 299 297 291 282 280 277 275 276 276 283 299 302 311 316 321 320 316 314 2 329 331 63 185
341 341 360 343 319 315 316 335 326 319 321 320 318 321 337 346 322 317 314 309 303 296 297 290 277 276 268 265 264 268 281 295 312 318 320 327 343 4 338 331 26 32 61
340 335 328 336 323 317 345 325 325 324 327 325 320 320 332 330 316 314 313 312 310 302 292 287 281 270 263 258 250 254 261 279 296 307 320 329 343 8 4 4 19 26 62
351 344 341 344 328 337 329 324 325 322 318 322 324 320 326 323 320 319 318 314 315 310 305 292 282 273 257 243 237 243 238 248 265 309 322 325 334 7 21 20 14 33 55
350 337 347 347 342 348 336 337 328 329 331 325 321 328 325 322 320 317 320 314 317 315 311 300 288 277 268 244 226 230 234 231 256 289 314 315 328 346 56 38 25 35 72
355 357 348 344 344 336 340 337 326 323 325 325 324 327 326 323 323 324 320 319 321 322 321 317 300 279 264 241 224 217 217 224 240 270 308 305 330 347 26 86 61 48 56
0 345 350 347 343 339 342 334 332 332 332 331 327 328 327 326 330 323 326 327 326 325 325 322 311 298 278 237 220 212 212 212 219 232 281 317 332 351 16 64 86 73 88